Location: Foligno
(42.9600°N, 12.7050°E)
Time: 15:51:58
(UTC+02:00)

ISS - Pass Details

Date: 20 July 2018
Orbit: 402 x 408 km, 51.6° (Epoch: 21 July)

Event Time Altitude Azimuth Distance (km) Brightness Sun altitude
Rises 03:51:18 0° 305° (NW) 2,331 0.0 -17.0°
Reaches altitude 10° 03:53:26 10° 311° (NW) 1,470 -1.0 -16.7°
Maximum altitude 03:56:39 50° 28° (NNE) 528 -2.9 -16.4°
Drops below altitude 10° 03:59:52 10° 105° (ESE) 1,465 -0.7 -16.0°
Sets 04:01:59 0° 111° (ESE) 2,324 0.3 -15.7°
